WXM80 ListenWXM80 Stop

You find our weather info also at:

UK Metoffice

WeatherCloud

Weather Underground

Northeastern Weather Network

AWEKAS

Citizen Weather Observer Program (CWOP)

HAMweather, WeatherForYou, PWS Weather


Weather Underground History page Text

Daily Summary for December 28, 2017 Units:  English    Metric   Both
« Previous Day
Next Day »
Daily Weekly Monthly Yearly Custom
  High: Low: Average:
Temperature: 18.6 °F 12.7 °F 16.2 °F
Dew Point: 6.2 °F -0.2 °F 3.1 °F
Humidity: 67 % 46 % 56 %
Wind Speed: 11.3 mph 1.2 mph 6.2 mph
Wind Gust: 20.7 mph - -
Wind:- - WNW
Pressure: 30.55 in 30.40 in -
Precipitation: 0.00 in    
Historical Graphs
 
 
Tabular Data for December 28, 2017
Time Temperature Dew Point Pressure Wind Wind Speed Wind Gust Humidity Rainfall Rate (Hourly)
00:02 18.5 °F 4.6 °F 30.47 in West 7.1 mph 16.0 mph 54 % 0.00 in
00:06 18.5 °F 4.6 °F 30.47 in West 6.1 mph 9.2 mph 54 % 0.00 in
00:11 18.4 °F 4.5 °F 30.47 in NW 7.0 mph 20.0 mph 54 % 0.00 in
00:16 18.3 °F 4.8 °F 30.47 in WNW 4.8 mph 16.1 mph 55 % 0.00 in
00:18 18.3 °F 4.8 °F 30.47 in West 8.0 mph 11.5 mph 55 % 0.00 in
00:21 18.3 °F 4.8 °F 30.47 in WNW 3.5 mph 10.4 mph 55 % 0.00 in
00:24 18.3 °F 5.2 °F 30.46 in NW 5.1 mph 11.5 mph 56 % 0.00 in
00:26 18.3 °F 5.2 °F 30.47 in WNW 2.7 mph 10.4 mph 56 % 0.00 in
00:31 18.2 °F 5.5 °F 30.47 in WNW 5.0 mph 5.0 mph 57 % 0.00 in
00:35 18.2 °F 5.5 °F 30.47 in WNW 5.0 mph 5.0 mph 57 % 0.00 in
00:38 18.2 °F 5.5 °F 30.47 in West 5.7 mph 10.4 mph 57 % 0.00 in
00:41 18.2 °F 5.5 °F 30.47 in NW 9.8 mph 16.1 mph 57 % 0.00 in
00:46 18.1 °F 4.6 °F 30.46 in NNW 4.3 mph 9.2 mph 55 % 0.00 in
00:48 18.1 °F 4.6 °F 30.47 in West 7.3 mph 12.0 mph 55 % 0.00 in
00:53 18.1 °F 5.0 °F 30.46 in NW 3.7 mph 9.2 mph 56 % 0.00 in
01:03 17.9 °F 5.2 °F 30.46 in West 3.1 mph 18.4 mph 57 % 0.00 in
01:04 17.9 °F 5.2 °F 30.47 in West 3.3 mph 10.0 mph 57 % 0.00 in
01:09 17.9 °F 4.8 °F 30.46 in WNW 5.0 mph 11.0 mph 56 % 0.00 in
01:10 17.9 °F 4.8 °F 30.46 in West 7.3 mph 17.3 mph 56 % 0.00 in
01:12 17.8 °F 4.7 °F 30.46 in NW 5.9 mph 12.7 mph 56 % 0.00 in
01:17 17.8 °F 5.1 °F 30.46 in NNW 5.3 mph 10.4 mph 57 % 0.00 in
01:22 17.7 °F 5.4 °F 30.46 in NNW 4.6 mph 11.5 mph 58 % 0.00 in
01:23 17.7 °F 5.4 °F 30.47 in NW 4.7 mph 8.1 mph 58 % 0.00 in
01:24 17.7 °F 5.4 °F 30.47 in NNW 4.0 mph 8.1 mph 58 % 0.00 in
01:29 17.6 °F 5.7 °F 30.46 in NW 1.6 mph 5.8 mph 59 % 0.00 in
01:34 17.6 °F 5.3 °F 30.47 in WNW 4.8 mph 10.4 mph 58 % 0.00 in
01:36 17.6 °F 5.3 °F 30.46 in WNW 9.5 mph 13.0 mph 58 % 0.00 in
01:41 17.5 °F 5.2 °F 30.46 in WNW 7.2 mph 10.4 mph 58 % 0.00 in
01:45 17.5 °F 5.2 °F 30.47 in NW 7.4 mph 11.5 mph 58 % 0.00 in
01:50 17.5 °F 5.6 °F 30.47 in NNW 7.1 mph 11.5 mph 59 % 0.00 in
01:55 17.4 °F 5.5 °F 30.47 in West 4.7 mph 6.9 mph 59 % 0.00 in
01:57 17.4 °F 5.5 °F 30.47 in WNW 7.8 mph 19.6 mph 59 % 0.00 in
02:02 17.3 °F 5.4 °F 30.47 in SW 6.8 mph 15.0 mph 59 % 0.00 in
02:04 17.3 °F 5.4 °F 30.48 in NNW 7.2 mph 13.8 mph 59 % 0.00 in
02:06 17.3 °F 5.8 °F 30.47 in NW 7.8 mph 11.5 mph 60 % 0.00 in
02:10 17.3 °F 5.4 °F 30.47 in NW 2.2 mph 13.0 mph 59 % 0.00 in
02:15 17.2 °F 4.9 °F 30.48 in WNW 6.9 mph 16.1 mph 58 % 0.00 in
02:19 17.2 °F 5.7 °F 30.47 in NW 3.0 mph 11.5 mph 60 % 0.00 in
02:21 17.2 °F 5.7 °F 30.47 in WNW 4.9 mph 12.7 mph 60 % 0.00 in
02:26 17.1 °F 5.6 °F 30.47 in NW 5.0 mph 11.5 mph 60 % 0.00 in
02:28 17.1 °F 5.6 °F 30.48 in NNW 5.6 mph 15.0 mph 60 % 0.00 in
02:32 17.0 °F 5.1 °F 30.47 in NNW 5.5 mph 15.0 mph 59 % 0.00 in
02:35 17.0 °F 5.5 °F 30.47 in NW 5.7 mph 11.5 mph 60 % 0.00 in
02:40 17.0 °F 5.5 °F 30.47 in WNW 7.5 mph 11.5 mph 60 % 0.00 in
02:42 16.9 °F 5.4 °F 30.47 in WSW 5.8 mph 15.0 mph 60 % 0.00 in
02:43 16.9 °F 5.4 °F 30.47 in NNW 6.4 mph 15.0 mph 60 % 0.00 in
02:48 16.9 °F 5.8 °F 30.47 in WNW 4.5 mph 13.8 mph 61 % 0.00 in
02:49 16.9 °F 5.8 °F 30.47 in West 5.7 mph 8.1 mph 61 % 0.00 in
02:54 16.8 °F 5.7 °F 30.48 in West 7.0 mph 18.4 mph 61 % 0.00 in
02:55 16.8 °F 5.7 °F 30.48 in WNW 7.9 mph 18.4 mph 61 % 0.00 in
03:00 16.7 °F 5.2 °F 30.48 in WNW 5.9 mph 12.7 mph 60 % 0.00 in
03:02 16.8 °F 5.7 °F 30.48 in WNW 4.9 mph 11.5 mph 61 % 0.00 in
03:07 16.7 °F 5.6 °F 30.48 in West 7.2 mph 15.0 mph 61 % 0.00 in
03:09 16.7 °F 5.2 °F 30.48 in NW 6.7 mph 6.9 mph 60 % 0.00 in
03:14 16.7 °F 5.6 °F 30.47 in NW 6.3 mph 11.5 mph 61 % 0.00 in
03:19 16.6 °F 5.8 °F 30.47 in NW 5.0 mph 9.2 mph 62 % 0.00 in
03:21 16.6 °F 5.8 °F 30.47 in West 8.0 mph 11.5 mph 62 % 0.00 in
03:26 16.6 °F 5.8 °F 30.47 in West 9.1 mph 15.0 mph 62 % 0.00 in
03:29 16.6 °F 5.8 °F 30.47 in NW 4.9 mph 12.7 mph 62 % 0.00 in
03:34 16.6 °F 6.2 °F 30.47 in NNW 5.2 mph 6.9 mph 63 % 0.00 in
03:36 16.6 °F 6.2 °F 30.47 in NW 7.1 mph 10.4 mph 63 % 0.00 in
03:41 16.6 °F 6.2 °F 30.47 in NW 4.9 mph 10.4 mph 63 % 0.00 in
03:52 16.5 °F 5.7 °F 30.47 in WNW 4.5 mph 10.4 mph 62 % 0.00 in
03:55 16.5 °F 5.7 °F 30.48 in West 7.3 mph 15.0 mph 62 % 0.00 in
04:00 16.5 °F 6.1 °F 30.48 in WNW 7.0 mph 12.0 mph 63 % 0.00 in
04:03 16.5 °F 6.1 °F 30.48 in West 2.5 mph 9.2 mph 63 % 0.00 in
04:05 16.5 °F 6.1 °F 30.48 in West 5.3 mph 12.7 mph 63 % 0.00 in
04:09 16.5 °F 6.1 °F 30.48 in WNW 5.7 mph 11.5 mph 63 % 0.00 in
04:11 16.5 °F 6.1 °F 30.48 in NW 7.0 mph 13.8 mph 63 % 0.00 in
04:14 16.5 °F 5.7 °F 30.47 in WNW 7.3 mph 11.5 mph 62 % 0.00 in
04:19 16.4 °F 5.6 °F 30.47 in WNW 7.3 mph 14.0 mph 62 % 0.00 in
04:25 16.5 °F 6.1 °F 30.47 in West 7.9 mph 13.8 mph 63 % 0.00 in
04:30 16.4 °F 5.3 °F 30.48 in West 8.0 mph 14.0 mph 61 % 0.00 in
04:34 16.5 °F 5.7 °F 30.47 in North 5.5 mph 11.5 mph 62 % 0.00 in
04:39 16.4 °F 6.0 °F 30.47 in NW 8.4 mph 11.5 mph 63 % 0.00 in
04:42 16.4 °F 6.0 °F 30.47 in West 5.2 mph 13.8 mph 63 % 0.00 in
04:47 16.4 °F 5.6 °F 30.48 in WNW 5.6 mph 10.4 mph 62 % 0.00 in
04:51 16.3 °F 5.5 °F 30.48 in NW 7.5 mph 11.5 mph 62 % 0.00 in
04:56 16.2 °F 5.1 °F 30.48 in NW 6.3 mph 16.1 mph 61 % 0.00 in
04:59 16.2 °F 5.1 °F 30.48 in WNW 3.9 mph 11.5 mph 61 % 0.00 in
05:04 16.1 °F 5.4 °F 30.48 in NW 6.6 mph 11.5 mph 62 % 0.00 in
05:05 16.1 °F 5.4 °F 30.48 in SW 5.6 mph 11.5 mph 62 % 0.00 in
05:09 16.1 °F 5.4 °F 30.48 in WNW 8.6 mph 15.0 mph 62 % 0.00 in
05:11 16.1 °F 5.4 °F 30.48 in WNW 6.0 mph 16.0 mph 62 % 0.00 in
05:14 16.0 °F 5.3 °F 30.49 in WSW 8.4 mph 13.8 mph 62 % 0.00 in
05:18 15.9 °F 4.8 °F 30.49 in NW 6.4 mph 11.5 mph 61 % 0.00 in
05:20 15.9 °F 5.2 °F 30.49 in WNW 4.4 mph 11.5 mph 62 % 0.00 in
05:24 15.9 °F 5.2 °F 30.49 in NW 8.5 mph 16.0 mph 62 % 0.00 in
05:26 15.9 °F 5.5 °F 30.49 in NNW 6.3 mph 11.5 mph 63 % 0.00 in
05:31 15.9 °F 5.5 °F 30.49 in NW 5.3 mph 11.5 mph 63 % 0.00 in
05:36 15.8 °F 5.4 °F 30.48 in WNW 5.0 mph 16.0 mph 63 % 0.00 in
05:40 15.7 °F 5.3 °F 30.49 in NW 8.2 mph 16.1 mph 63 % 0.00 in
05:42 15.7 °F 5.3 °F 30.49 in West 6.1 mph 11.5 mph 63 % 0.00 in
05:47 15.7 °F 5.3 °F 30.49 in West 7.1 mph 13.0 mph 63 % 0.00 in
05:51 15.6 °F 4.9 °F 30.49 in West 5.6 mph 12.7 mph 62 % 0.00 in
05:56 15.5 °F 5.1 °F 30.49 in NW 8.8 mph 13.8 mph 63 % 0.00 in
06:01 15.5 °F 5.1 °F 30.49 in WNW 5.9 mph 11.5 mph 63 % 0.00 in
06:02 15.5 °F 5.1 °F 30.50 in West 8.2 mph 13.8 mph 63 % 0.00 in
06:03 15.5 °F 5.1 °F 30.49 in WNW 6.2 mph 10.4 mph 63 % 0.00 in
06:08 15.5 °F 5.5 °F 30.50 in WNW 5.9 mph 10.0 mph 64 % 0.00 in
06:09 15.5 °F 5.5 °F 30.49 in NNW 5.7 mph 12.0 mph 64 % 0.00 in
06:14 15.5 °F 5.8 °F 30.50 in WNW 6.8 mph 13.8 mph 65 % 0.00 in
06:20 15.5 °F 5.5 °F 30.50 in NW 3.6 mph 15.0 mph 64 % 0.00 in
06:25 15.5 °F 5.5 °F 30.50 in North 6.0 mph 12.7 mph 64 % 0.00 in
06:26 15.4 °F 5.4 °F 30.50 in NNW 6.1 mph 11.5 mph 64 % 0.00 in
06:28 15.5 °F 5.8 °F 30.51 in NW 7.4 mph 11.5 mph 65 % 0.00 in
06:33 15.4 °F 5.4 °F 30.51 in NW 4.9 mph 6.9 mph 64 % 0.00 in
06:38 15.4 °F 5.4 °F 30.51 in NW 9.8 mph 13.8 mph 64 % 0.00 in
06:39 15.3 °F 5.3 °F 30.51 in NW 5.6 mph 10.4 mph 64 % 0.00 in
06:42 15.3 °F 5.3 °F 30.52 in NW 5.8 mph 10.4 mph 64 % 0.00 in
06:50 15.2 °F 5.5 °F 30.52 in NNW 7.1 mph 11.5 mph 65 % 0.00 in
06:51 15.2 °F 5.5 °F 30.52 in NNW 7.0 mph 12.0 mph 65 % 0.00 in
06:53 15.2 °F 5.5 °F 30.52 in NW 2.8 mph 4.6 mph 65 % 0.00 in
06:56 15.2 °F 5.5 °F 30.52 in NNW 6.1 mph 11.5 mph 65 % 0.00 in
07:01 15.1 °F 5.4 °F 30.52 in NNW 5.1 mph 9.0 mph 65 % 0.00 in
07:04 15.1 °F 5.4 °F 30.52 in NNW 6.1 mph 9.0 mph 65 % 0.00 in
07:09 15.0 °F 5.0 °F 30.52 in NNW 3.3 mph 10.4 mph 64 % 0.00 in
07:14 15.0 °F 5.3 °F 30.52 in WNW 6.6 mph 14.0 mph 65 % 0.00 in
07:15 15.0 °F 5.3 °F 30.52 in NW 7.4 mph 9.2 mph 65 % 0.00 in
07:18 14.9 °F 4.9 °F 30.53 in WNW 8.9 mph 15.0 mph 64 % 0.00 in
07:22 14.9 °F 4.6 °F 30.52 in NNW 4.6 mph 11.5 mph 63 % 0.00 in
07:27 14.9 °F 4.9 °F 30.52 in NNW 7.6 mph 13.8 mph 64 % 0.00 in
07:32 14.8 °F 5.2 °F 30.52 in North 5.5 mph 11.5 mph 65 % 0.00 in
07:37 14.8 °F 5.2 °F 30.52 in NNW 4.9 mph 7.0 mph 65 % 0.00 in
07:40 14.7 °F 5.1 °F 30.52 in NNW 5.2 mph 12.0 mph 65 % 0.00 in
07:45 14.7 °F 5.1 °F 30.52 in NNW 4.1 mph 9.2 mph 65 % 0.00 in
07:50 14.7 °F 5.4 °F 30.53 in North 5.3 mph 8.1 mph 66 % 0.00 in
07:54 14.8 °F 5.5 °F 30.53 in WNW 7.0 mph 11.5 mph 66 % 0.00 in
07:59 14.9 °F 5.9 °F 30.53 in NNW 6.4 mph 11.5 mph 67 % 0.00 in
08:05 14.9 °F 4.9 °F 30.53 in NNW 3.4 mph 11.5 mph 64 % 0.00 in
08:10 14.8 °F 4.8 °F 30.53 in NW 4.7 mph 10.4 mph 64 % 0.00 in
08:15 14.8 °F 4.8 °F 30.53 in NNW 7.6 mph 18.4 mph 64 % 0.00 in
08:16 14.8 °F 4.8 °F 30.53 in NW 9.0 mph 18.0 mph 64 % 0.00 in
08:21 14.7 °F 3.7 °F 30.53 in NW 7.0 mph 18.0 mph 61 % 0.00 in
08:22 14.7 °F 3.7 °F 30.53 in WNW 6.7 mph 13.0 mph 61 % 0.00 in
08:27 14.6 °F 3.2 °F 30.53 in NW 5.3 mph 11.5 mph 60 % 0.00 in
08:29 14.6 °F 3.6 °F 30.53 in NNW 7.5 mph 10.4 mph 61 % 0.00 in
08:34 14.5 °F 3.5 °F 30.53 in WNW 4.5 mph 9.2 mph 61 % 0.00 in
08:35 14.6 °F 3.6 °F 30.53 in NW 4.4 mph 9.2 mph 61 % 0.00 in
08:40 14.5 °F 3.1 °F 30.53 in WNW 6.2 mph 15.0 mph 60 % 0.00 in
08:41 14.5 °F 3.1 °F 30.54 in WNW 4.8 mph 11.0 mph 60 % 0.00 in
08:42 14.5 °F 3.1 °F 30.53 in NNW 7.0 mph 11.5 mph 60 % 0.00 in
08:47 14.5 °F 3.1 °F 30.54 in NNW 5.4 mph 13.8 mph 60 % 0.00 in
08:48 14.5 °F 3.1 °F 30.54 in West 3.4 mph 8.1 mph 60 % 0.00 in
08:53 14.5 °F 3.1 °F 30.54 in NW 4.9 mph 11.5 mph 60 % 0.00 in
08:58 14.5 °F 2.8 °F 30.54 in NW 3.4 mph 9.0 mph 59 % 0.00 in
08:59 14.5 °F 2.8 °F 30.54 in WNW 6.9 mph 12.0 mph 59 % 0.00 in
09:04 14.5 °F 2.4 °F 30.55 in WNW 6.1 mph 12.7 mph 58 % 0.00 in
09:08 14.5 °F 2.4 °F 30.55 in West 5.5 mph 11.5 mph 58 % 0.00 in
09:13 14.5 °F 2.0 °F 30.55 in NW 5.6 mph 15.0 mph 57 % 0.00 in
09:17 14.5 °F 2.4 °F 30.55 in NNW 5.9 mph 10.4 mph 58 % 0.00 in
09:23 14.6 °F 2.5 °F 30.55 in North 4.4 mph 11.5 mph 58 % 0.00 in
09:26 14.7 °F 2.9 °F 30.55 in WNW 7.6 mph 11.5 mph 59 % 0.00 in
09:27 14.7 °F 2.6 °F 30.55 in NW 9.8 mph 16.1 mph 58 % 0.00 in
09:32 14.7 °F 2.2 °F 30.55 in NW 4.9 mph 10.4 mph 57 % 0.00 in
09:33 14.8 °F 2.3 °F 30.55 in North 5.8 mph 8.1 mph 57 % 0.00 in
09:38 14.8 °F 2.7 °F 30.55 in WNW 6.8 mph 10.4 mph 58 % 0.00 in
09:39 14.8 °F 2.7 °F 30.55 in WNW 8.9 mph 12.7 mph 58 % 0.00 in
09:43 14.9 °F 2.0 °F 30.55 in West 3.2 mph 11.5 mph 56 % 0.00 in
09:48 14.9 °F 1.2 °F 30.55 in WNW 6.0 mph 12.7 mph 54 % 0.00 in
09:49 14.9 °F 1.2 °F 30.55 in WNW 6.2 mph 12.7 mph 54 % 0.00 in
09:54 14.9 °F 1.2 °F 30.55 in WNW 4.3 mph 9.2 mph 54 % 0.00 in
09:55 14.9 °F 1.2 °F 30.55 in WNW 4.2 mph 9.0 mph 54 % 0.00 in
10:00 15.1 °F 1.8 °F 30.55 in North 5.8 mph 9.2 mph 55 % 0.00 in
10:05 15.4 °F 2.1 °F 30.55 in West 1.9 mph 7.0 mph 55 % 0.00 in
10:10 15.7 °F 2.0 °F 30.55 in NW 6.3 mph 11.5 mph 54 % 0.00 in
10:15 15.9 °F 1.8 °F 30.55 in NW 6.7 mph 12.7 mph 53 % 0.00 in
10:23 16.3 °F 2.5 °F 30.55 in NNW 4.6 mph 11.5 mph 54 % 0.00 in
10:28 16.6 °F 2.0 °F 30.55 in WNW 7.2 mph 13.8 mph 52 % 0.00 in
10:33 16.6 °F 1.2 °F 30.54 in NW 5.8 mph 9.2 mph 50 % 0.00 in
10:38 16.6 °F 1.2 °F 30.54 in NNW 6.6 mph 11.5 mph 50 % 0.00 in
10:43 16.5 °F 1.1 °F 30.54 in NNW 7.1 mph 13.8 mph 50 % 0.00 in
10:46 16.5 °F 1.1 °F 30.53 in NW 6.4 mph 11.5 mph 50 % 0.00 in
10:51 16.5 °F 1.1 °F 30.53 in WNW 6.5 mph 12.7 mph 50 % 0.00 in
10:52 16.5 °F 0.6 °F 30.53 in WNW 4.2 mph 12.7 mph 49 % 0.00 in
10:57 16.4 °F 0.5 °F 30.53 in WNW 4.4 mph 6.0 mph 49 % 0.00 in
11:01 16.4 °F 1.0 °F 30.53 in WNW 5.9 mph 10.0 mph 50 % 0.00 in
11:02 16.4 °F 1.0 °F 30.53 in NW 7.3 mph 11.5 mph 50 % 0.00 in
11:07 16.4 °F 0.5 °F 30.52 in NW 5.2 mph 10.4 mph 49 % 0.00 in
11:08 16.4 °F 0.5 °F 30.52 in WSW 5.3 mph 8.1 mph 49 % 0.00 in
11:13 16.3 °F 0.9 °F 30.52 in WNW 3.5 mph 10.4 mph 50 % 0.00 in
11:18 16.4 °F 1.8 °F 30.52 in NW 4.0 mph 6.9 mph 52 % 0.00 in
11:20 16.4 °F 1.8 °F 30.52 in West 6.3 mph 9.2 mph 52 % 0.00 in
11:23 16.4 °F 1.4 °F 30.52 in NW 4.3 mph 6.9 mph 51 % 0.00 in
11:25 16.5 °F 1.5 °F 30.52 in SW 1.2 mph 3.5 mph 51 % 0.00 in
11:30 16.5 °F 0.6 °F 30.51 in WNW 5.7 mph 8.1 mph 49 % 0.00 in
11:35 16.5 °F 0.6 °F 30.51 in NW 4.2 mph 8.1 mph 49 % 0.00 in
11:36 16.4 °F 1.0 °F 30.51 in WNW 6.8 mph 10.4 mph 50 % 0.00 in
11:39 16.4 °F 1.0 °F 30.51 in WNW 7.5 mph 8.1 mph 50 % 0.00 in
11:44 16.3 °F 0.5 °F 30.51 in NW 9.0 mph 12.7 mph 49 % 0.00 in
11:45 16.2 °F 0.4 °F 30.51 in West 6.7 mph 13.8 mph 49 % 0.00 in
11:50 16.1 °F -0.2 °F 30.50 in NNW 5.2 mph 10.4 mph 48 % 0.00 in
11:56 16.1 °F -0.2 °F 30.49 in WNW 8.0 mph 15.0 mph 48 % 0.00 in
12:01 16.0 °F 0.2 °F 30.50 in WNW 4.5 mph 9.2 mph 49 % 0.00 in
12:06 16.1 °F 0.3 °F 30.49 in NW 8.3 mph 13.8 mph 49 % 0.00 in
12:07 16.1 °F 0.3 °F 30.49 in WNW 7.1 mph 10.4 mph 49 % 0.00 in
12:12 16.3 °F 0.9 °F 30.49 in NNW 8.7 mph 12.7 mph 50 % 0.00 in
12:13 16.3 °F 0.9 °F 30.49 in WNW 7.1 mph 11.5 mph 50 % 0.00 in
12:18 16.5 °F 1.1 °F 30.49 in NW 6.8 mph 10.4 mph 50 % 0.00 in
12:20 16.6 °F 1.2 °F 30.49 in NW 3.7 mph 11.5 mph 50 % 0.00 in
12:21 16.6 °F 1.2 °F 30.49 in NNW 5.5 mph 10.4 mph 50 % 0.00 in
12:26 16.8 °F 0.5 °F 30.48 in West 9.2 mph 13.8 mph 48 % 0.00 in
12:35 17.1 °F 0.3 °F 30.47 in WSW 6.2 mph 9.0 mph 47 % 0.00 in
12:40 17.3 °F 0.5 °F 30.47 in WSW 6.1 mph 12.7 mph 47 % 0.00 in
12:41 17.3 °F 0.5 °F 30.47 in WSW 4.0 mph 12.7 mph 47 % 0.00 in
12:46 17.5 °F 0.7 °F 30.47 in WNW 5.0 mph 12.0 mph 47 % 0.00 in
12:51 17.6 °F 0.8 °F 30.47 in WNW 5.0 mph 14.0 mph 47 % 0.00 in
12:56 17.7 °F 0.9 °F 30.47 in North 6.0 mph 11.5 mph 47 % 0.00 in
12:57 17.7 °F 1.3 °F 30.47 in NW 4.8 mph 9.2 mph 48 % 0.00 in
13:02 17.9 °F 1.5 °F 30.47 in WNW 4.1 mph 12.7 mph 48 % 0.00 in
13:07 17.9 °F 0.6 °F 30.46 in WNW 7.4 mph 12.7 mph 46 % 0.00 in
13:12 17.9 °F 0.6 °F 30.47 in NW 10.8 mph 15.0 mph 46 % 0.00 in
13:14 17.9 °F 0.6 °F 30.46 in NW 6.9 mph 13.8 mph 46 % 0.00 in
13:19 17.9 °F 1.0 °F 30.46 in NW 5.1 mph 9.2 mph 47 % 0.00 in
13:24 18.0 °F 1.1 °F 30.46 in NW 8.3 mph 16.1 mph 47 % 0.00 in
13:26 18.0 °F 1.1 °F 30.46 in West 4.6 mph 9.2 mph 47 % 0.00 in
13:31 18.1 °F 0.8 °F 30.45 in NW 8.7 mph 12.7 mph 46 % 0.00 in
13:36 18.1 °F 1.2 °F 30.45 in West 10.2 mph 15.0 mph 47 % 0.00 in
13:41 18.1 °F 0.8 °F 30.45 in NW 6.5 mph 11.5 mph 46 % 0.00 in
13:44 18.2 °F 1.3 °F 30.45 in WSW 5.0 mph 9.2 mph 47 % 0.00 in
13:49 18.3 °F 0.9 °F 30.45 in NW 11.0 mph 18.4 mph 46 % 0.00 in
13:51 18.3 °F 0.9 °F 30.45 in North 7.3 mph 13.8 mph 46 % 0.00 in
13:56 18.3 °F 0.9 °F 30.44 in NW 2.8 mph 13.8 mph 46 % 0.00 in
13:58 18.4 °F 1.5 °F 30.44 in WNW 5.7 mph 11.5 mph 47 % 0.00 in
14:01 18.4 °F 1.5 °F 30.44 in NW 6.2 mph 11.5 mph 47 % 0.00 in
14:06 18.5 °F 2.5 °F 30.44 in WNW 6.2 mph 11.5 mph 49 % 0.00 in
14:11 18.5 °F 1.6 °F 30.44 in WNW 7.6 mph 11.5 mph 47 % 0.00 in
14:13 18.6 °F 1.7 °F 30.44 in NNW 8.0 mph 13.8 mph 47 % 0.00 in
14:18 18.5 °F 1.6 °F 30.45 in WNW 10.0 mph 16.0 mph 47 % 0.00 in
14:24 18.2 °F 2.2 °F 30.45 in WSW 7.2 mph 10.4 mph 49 % 0.00 in
14:29 18.1 °F 1.2 °F 30.45 in NNW 9.7 mph 11.5 mph 47 % 0.00 in
14:32 18.0 °F 1.1 °F 30.45 in NNW 9.0 mph 13.8 mph 47 % 0.00 in
14:37 18.0 °F 2.0 °F 30.45 in WNW 4.1 mph 9.2 mph 49 % 0.00 in
14:38 17.9 °F 1.9 °F 30.45 in West 3.9 mph 12.0 mph 49 % 0.00 in
14:43 17.9 °F 0.6 °F 30.45 in NW 7.0 mph 15.0 mph 46 % 0.00 in
14:44 17.9 °F 1.0 °F 30.45 in North 8.2 mph 9.0 mph 47 % 0.00 in
14:49 17.9 °F 1.5 °F 30.45 in NW 8.0 mph 13.0 mph 48 % 0.00 in
14:50 17.9 °F 1.5 °F 30.45 in NNW 7.4 mph 12.7 mph 48 % 0.00 in
14:51 17.9 °F 1.5 °F 30.45 in North 8.1 mph 12.7 mph 48 % 0.00 in
14:56 17.8 °F 1.4 °F 30.44 in WNW 7.6 mph 13.8 mph 48 % 0.00 in
14:57 17.8 °F 0.9 °F 30.45 in NW 4.1 mph 8.1 mph 47 % 0.00 in
15:00 17.7 °F 0.9 °F 30.45 in NNW 4.6 mph 12.0 mph 47 % 0.00 in
15:05 17.7 °F 1.7 °F 30.45 in NW 2.4 mph 7.0 mph 49 % 0.00 in
15:10 17.7 °F 1.3 °F 30.45 in WNW 6.3 mph 12.7 mph 48 % 0.00 in
15:15 17.7 °F 1.3 °F 30.45 in West 10.2 mph 19.6 mph 48 % 0.00 in
15:19 17.7 °F 1.3 °F 30.45 in North 8.0 mph 17.3 mph 48 % 0.00 in
15:24 17.7 °F 1.3 °F 30.46 in NNW 3.4 mph 10.4 mph 48 % 0.00 in
15:27 17.7 °F 1.7 °F 30.46 in WNW 4.5 mph 11.5 mph 49 % 0.00 in
15:32 17.7 °F 1.7 °F 30.45 in WNW 7.1 mph 19.6 mph 49 % 0.00 in
15:34 17.7 °F 0.9 °F 30.46 in West 7.3 mph 16.1 mph 47 % 0.00 in
15:35 17.7 °F 1.3 °F 30.46 in NNW 6.2 mph 11.5 mph 48 % 0.00 in
15:40 17.7 °F 2.2 °F 30.46 in NW 4.6 mph 11.0 mph 50 % 0.00 in
15:41 17.7 °F 2.2 °F 30.46 in WNW 7.0 mph 9.0 mph 50 % 0.00 in
15:47 17.6 °F 1.2 °F 30.46 in WNW 2.2 mph 11.5 mph 48 % 0.00 in
15:52 17.6 °F 1.7 °F 30.46 in NW 4.8 mph 10.4 mph 49 % 0.00 in
15:53 17.6 °F 1.7 °F 30.46 in West 5.2 mph 10.4 mph 49 % 0.00 in
15:58 17.5 °F 0.7 °F 30.46 in WNW 9.7 mph 18.4 mph 47 % 0.00 in
16:00 17.5 °F 0.7 °F 30.46 in NW 5.9 mph 15.0 mph 47 % 0.00 in
16:03 17.5 °F 1.6 °F 30.47 in WNW 7.6 mph 12.7 mph 49 % 0.00 in
16:08 17.4 °F 0.6 °F 30.46 in WSW 6.1 mph 11.5 mph 47 % 0.00 in
16:14 17.3 °F 0.9 °F 30.46 in WNW 6.9 mph 10.4 mph 48 % 0.00 in
16:24 17.1 °F 0.7 °F 30.46 in NW 7.1 mph 13.8 mph 48 % 0.00 in
16:26 17.1 °F 1.2 °F 30.46 in WNW 7.0 mph 16.1 mph 49 % 0.00 in
16:31 17.1 °F 1.2 °F 30.46 in NW 3.3 mph 11.5 mph 49 % 0.00 in
16:32 17.1 °F 1.2 °F 30.46 in WNW 7.2 mph 12.0 mph 49 % 0.00 in
16:37 17.1 °F 1.6 °F 30.47 in WSW 8.7 mph 17.3 mph 50 % 0.00 in
16:40 17.1 °F 0.7 °F 30.47 in West 6.8 mph 11.5 mph 48 % 0.00 in
16:45 17.1 °F 1.6 °F 30.47 in WNW 3.2 mph 8.1 mph 50 % 0.00 in
16:50 17.1 °F 1.6 °F 30.47 in West 7.1 mph 12.7 mph 50 % 0.00 in
16:55 17.2 °F 1.7 °F 30.47 in WNW 11.0 mph 20.7 mph 50 % 0.00 in
16:57 17.1 °F 1.6 °F 30.47 in NW 8.0 mph 16.1 mph 50 % 0.00 in
17:02 17.1 °F 1.2 °F 30.47 in NW 10.3 mph 18.4 mph 49 % 0.00 in
17:05 17.1 °F 1.6 °F 30.47 in NNW 7.6 mph 13.8 mph 50 % 0.00 in
17:08 17.1 °F 2.1 °F 30.47 in WNW 5.2 mph 11.5 mph 51 % 0.00 in
17:13 17.1 °F 1.6 °F 30.47 in West 10.2 mph 15.0 mph 50 % 0.00 in
17:14 17.1 °F 1.6 °F 30.47 in WNW 9.6 mph 18.0 mph 50 % 0.00 in
17:18 17.0 °F 2.0 °F 30.48 in WNW 7.0 mph 12.0 mph 51 % 0.00 in
17:23 17.0 °F 1.5 °F 30.48 in SSW 7.9 mph 15.0 mph 50 % 0.00 in
17:28 17.0 °F 1.5 °F 30.48 in WNW 6.0 mph 19.6 mph 50 % 0.00 in
17:29 16.9 °F 1.4 °F 30.47 in West 9.9 mph 18.4 mph 50 % 0.00 in
17:30 16.9 °F 1.4 °F 30.48 in NW 9.3 mph 14.0 mph 50 % 0.00 in
17:35 16.9 °F 2.7 °F 30.48 in WNW 7.3 mph 17.0 mph 53 % 0.00 in
17:37 17.0 °F 2.8 °F 30.48 in NW 8.2 mph 17.3 mph 53 % 0.00 in
17:38 17.0 °F 2.4 °F 30.48 in NW 8.1 mph 11.5 mph 52 % 0.00 in
17:43 17.0 °F 2.0 °F 30.47 in WNW 10.6 mph 19.6 mph 51 % 0.00 in
17:45 16.9 °F 1.9 °F 30.47 in NNW 6.3 mph 11.0 mph 51 % 0.00 in
17:50 16.8 °F 2.2 °F 30.47 in NNW 8.7 mph 16.1 mph 52 % 0.00 in
17:55 16.8 °F 2.2 °F 30.47 in NW 9.8 mph 17.3 mph 52 % 0.00 in
18:00 16.8 °F 1.8 °F 30.48 in West 3.7 mph 11.5 mph 51 % 0.00 in
18:02 16.7 °F 1.7 °F 30.47 in NW 7.0 mph 19.6 mph 51 % 0.00 in
18:08 16.7 °F 1.7 °F 30.47 in NW 6.5 mph 11.5 mph 51 % 0.00 in
18:10 16.7 °F 1.7 °F 30.47 in WNW 5.9 mph 10.0 mph 51 % 0.00 in
18:15 16.7 °F 2.5 °F 30.47 in NW 8.7 mph 16.0 mph 53 % 0.00 in
18:17 16.7 °F 2.5 °F 30.47 in WNW 5.0 mph 15.0 mph 53 % 0.00 in
18:22 16.7 °F 2.9 °F 30.47 in WNW 6.9 mph 11.5 mph 54 % 0.00 in
18:23 16.7 °F 3.3 °F 30.47 in NNW 7.0 mph 10.0 mph 55 % 0.00 in
18:28 16.7 °F 3.7 °F 30.46 in NNW 5.2 mph 11.5 mph 56 % 0.00 in
18:29 16.7 °F 2.9 °F 30.46 in NNW 5.5 mph 8.1 mph 54 % 0.00 in
18:30 16.7 °F 2.5 °F 30.46 in NW 6.1 mph 13.8 mph 53 % 0.00 in
18:35 16.6 °F 2.4 °F 30.46 in NW 4.7 mph 12.7 mph 53 % 0.00 in
18:40 16.6 °F 2.4 °F 30.46 in NW 8.1 mph 17.0 mph 53 % 0.00 in
18:45 16.4 °F 2.2 °F 30.47 in NW 8.2 mph 15.0 mph 53 % 0.00 in
18:49 16.4 °F 2.2 °F 30.46 in WSW 8.5 mph 16.0 mph 53 % 0.00 in
18:50 16.4 °F 2.2 °F 30.47 in West 11.3 mph 19.6 mph 53 % 0.00 in
18:55 16.3 °F 2.1 °F 30.46 in NW 5.0 mph 19.6 mph 53 % 0.00 in
19:00 16.3 °F 2.5 °F 30.47 in NW 9.7 mph 16.1 mph 54 % 0.00 in
19:04 16.2 °F 1.6 °F 30.47 in WNW 5.4 mph 12.0 mph 52 % 0.00 in
19:05 16.2 °F 2.0 °F 30.47 in WSW 8.3 mph 12.7 mph 53 % 0.00 in
19:11 16.1 °F 2.8 °F 30.46 in WNW 7.0 mph 16.0 mph 55 % 0.00 in
19:16 16.1 °F 2.4 °F 30.47 in WNW 6.0 mph 18.0 mph 54 % 0.00 in
19:19 16.1 °F 2.7 °F 30.47 in NNW 2.1 mph 5.8 mph 55 % 0.00 in
19:21 16.1 °F 3.1 °F 30.47 in WNW 10.0 mph 16.1 mph 56 % 0.00 in
19:26 16.0 °F 2.7 °F 30.48 in NW 6.6 mph 13.8 mph 55 % 0.00 in
19:27 16.0 °F 2.7 °F 30.48 in WNW 6.9 mph 12.7 mph 55 % 0.00 in
19:29 16.0 °F 3.0 °F 30.47 in NW 9.9 mph 12.0 mph 56 % 0.00 in
19:34 15.9 °F 2.6 °F 30.47 in WNW 6.5 mph 16.1 mph 55 % 0.00 in
19:39 15.8 °F 2.5 °F 30.47 in WNW 10.0 mph 17.3 mph 55 % 0.00 in
19:43 15.8 °F 2.1 °F 30.47 in NW 10.4 mph 15.0 mph 54 % 0.00 in
19:45 15.7 °F 2.0 °F 30.47 in WNW 9.6 mph 18.0 mph 54 % 0.00 in
19:50 15.6 °F 1.9 °F 30.48 in WNW 9.7 mph 13.8 mph 54 % 0.00 in
19:51 15.5 °F 1.8 °F 30.48 in West 9.9 mph 13.8 mph 54 % 0.00 in
19:56 15.5 °F 2.2 °F 30.48 in NW 8.6 mph 10.4 mph 55 % 0.00 in
19:57 15.5 °F 2.2 °F 30.48 in WNW 4.5 mph 15.0 mph 55 % 0.00 in
20:02 15.4 °F 1.7 °F 30.46 in WNW 8.4 mph 15.0 mph 54 % 0.00 in
20:08 15.3 °F 2.0 °F 30.46 in NNW 8.1 mph 16.1 mph 55 % 0.00 in
20:10 15.2 °F 1.9 °F 30.46 in NW 6.9 mph 11.5 mph 55 % 0.00 in
20:15 15.2 °F 2.7 °F 30.47 in NW 4.1 mph 15.0 mph 57 % 0.00 in
20:25 15.1 °F 1.8 °F 30.46 in NW 7.0 mph 11.5 mph 55 % 0.00 in
20:30 15.0 °F 2.1 °F 30.46 in NW 7.1 mph 17.3 mph 56 % 0.00 in
20:32 15.0 °F 2.5 °F 30.45 in WNW 3.0 mph 8.1 mph 57 % 0.00 in
20:36 15.0 °F 2.5 °F 30.45 in NW 7.0 mph 13.0 mph 57 % 0.00 in
20:40 14.9 °F 2.4 °F 30.45 in North 6.7 mph 11.5 mph 57 % 0.00 in
20:44 14.9 °F 2.8 °F 30.46 in NNW 4.2 mph 16.1 mph 58 % 0.00 in
20:49 14.9 °F 3.1 °F 30.46 in NW 6.0 mph 7.0 mph 59 % 0.00 in
20:50 14.9 °F 3.1 °F 30.45 in West 6.1 mph 10.4 mph 59 % 0.00 in
20:55 14.8 °F 2.7 °F 30.45 in NW 6.9 mph 11.5 mph 58 % 0.00 in
20:57 14.8 °F 2.7 °F 30.45 in NW 6.2 mph 10.4 mph 58 % 0.00 in
21:02 14.7 °F 2.6 °F 30.45 in WNW 5.2 mph 15.0 mph 58 % 0.00 in
21:07 14.5 °F 2.4 °F 30.45 in NW 4.7 mph 9.2 mph 58 % 0.00 in
21:12 14.4 °F 2.7 °F 30.44 in West 4.1 mph 10.4 mph 59 % 0.00 in
21:15 14.4 °F 3.0 °F 30.44 in NNW 3.7 mph 9.2 mph 60 % 0.00 in
21:19 14.3 °F 2.6 °F 30.44 in NNW 4.4 mph 10.4 mph 59 % 0.00 in
21:24 14.3 °F 2.6 °F 30.44 in NNW 3.9 mph 8.1 mph 59 % 0.00 in
21:27 14.3 °F 2.6 °F 30.44 in NW 5.6 mph 11.5 mph 59 % 0.00 in
21:32 14.2 °F 2.5 °F 30.44 in NNW 6.3 mph 11.5 mph 59 % 0.00 in
21:36 14.1 °F 2.0 °F 30.44 in NNW 6.6 mph 10.4 mph 58 % 0.00 in
21:42 14.0 °F 2.3 °F 30.43 in West 8.1 mph 11.5 mph 59 % 0.00 in
21:45 14.0 °F 2.3 °F 30.43 in NNE 6.8 mph 17.3 mph 59 % 0.00 in
21:47 13.9 °F 1.8 °F 30.43 in NNW 6.5 mph 10.4 mph 58 % 0.00 in
21:52 13.8 °F 2.1 °F 30.42 in WNW 6.3 mph 10.4 mph 59 % 0.00 in
21:57 13.8 °F 2.5 °F 30.42 in WNW 4.9 mph 11.0 mph 60 % 0.00 in
22:02 13.7 °F 2.4 °F 30.42 in NW 5.8 mph 13.0 mph 60 % 0.00 in
22:05 13.7 °F 2.4 °F 30.42 in North 3.8 mph 9.2 mph 60 % 0.00 in
22:10 13.7 °F 2.7 °F 30.42 in NW 5.0 mph 11.0 mph 61 % 0.00 in
22:18 13.7 °F 3.1 °F 30.42 in NNW 5.9 mph 16.1 mph 62 % 0.00 in
22:23 13.7 °F 2.7 °F 30.42 in NNW 6.2 mph 10.4 mph 61 % 0.00 in
22:28 13.6 °F 2.6 °F 30.42 in NW 5.6 mph 8.1 mph 61 % 0.00 in
22:30 13.6 °F 2.6 °F 30.42 in North 6.2 mph 16.1 mph 61 % 0.00 in
22:35 13.5 °F 2.9 °F 30.42 in NNW 3.1 mph 9.2 mph 62 % 0.00 in
22:40 13.5 °F 2.9 °F 30.42 in WNW 4.8 mph 9.2 mph 62 % 0.00 in
22:41 13.5 °F 2.9 °F 30.42 in NW 6.0 mph 13.0 mph 62 % 0.00 in
22:46 13.4 °F 2.4 °F 30.42 in NW 4.1 mph 7.0 mph 61 % 0.00 in
22:49 13.4 °F 2.8 °F 30.41 in North 3.3 mph 13.8 mph 62 % 0.00 in
22:54 13.2 °F 2.6 °F 30.40 in North 4.3 mph 8.1 mph 62 % 0.00 in
22:56 13.2 °F 2.3 °F 30.41 in NNE 5.2 mph 6.0 mph 61 % 0.00 in
23:01 13.2 °F 2.6 °F 30.40 in NW 6.0 mph 10.4 mph 62 % 0.00 in
23:06 13.1 °F 2.5 °F 30.40 in NNW 5.0 mph 9.2 mph 62 % 0.00 in
23:08 13.1 °F 2.5 °F 30.40 in North 2.1 mph 6.9 mph 62 % 0.00 in
23:13 13.1 °F 2.5 °F 30.40 in NNW 3.9 mph 11.0 mph 62 % 0.00 in
23:16 13.0 °F 2.4 °F 30.40 in NW 5.8 mph 6.9 mph 62 % 0.00 in
23:21 13.0 °F 2.4 °F 30.40 in West 3.8 mph 10.4 mph 62 % 0.00 in
23:24 13.0 °F 2.8 °F 30.40 in North 4.6 mph 8.1 mph 63 % 0.00 in
23:29 12.9 °F 2.7 °F 30.40 in NNW 3.8 mph 4.6 mph 63 % 0.00 in
23:30 12.9 °F 2.7 °F 30.40 in NNE 3.8 mph 5.8 mph 63 % 0.00 in
23:32 12.9 °F 2.7 °F 30.40 in NW 3.4 mph 5.8 mph 63 % 0.00 in
23:37 12.8 °F 2.6 °F 30.40 in NW 4.3 mph 9.2 mph 63 % 0.00 in
23:42 12.8 °F 2.6 °F 30.40 in NNW 5.2 mph 5.2 mph 63 % 0.00 in
23:46 12.8 °F 2.2 °F 30.40 in NNW 5.9 mph 10.4 mph 62 % 0.00 in
23:51 12.7 °F 2.5 °F 30.40 in NNW 4.7 mph 11.5 mph 63 % 0.00 in
23:52 12.7 °F 2.5 °F 30.41 in NNW 2.1 mph 8.1 mph 63 % 0.00 in
23:57 12.7 °F 2.5 °F 30.40 in NNW 3.7 mph 6.9 mph 63 % 0.00 in
Crab Meadow Weather
Compliments of Weather Underground - 3.5 mb

Script developed by  Jim McMurry - jmcmurry@mwt.net Adapted for the template by  Wim van der Kuil - Leuven-Template.eu

Extremes: The most widespread U.S. cold wave was in February of 1899. It was so cold that the Mississippi River froze over its entire length, with ice as thick as two inches even in New Orleans.